Home   Weather   Yokosuka   Past weeks

Flag for Japan Past Weather in Yokosuka, Japan — Yesterday and Last 2 Weeks

Now
61 °F

Passing clouds.


Feels Like: 61 °F
Forecast: 59 / 64 °F
Wind: 15 mph from South

Location: Tokyo International Airport

Current Time: Apr 26, 2017 at 1:47:02 am

Latest Report: Apr 26, 2017 at 1:00 am


Visibility: N/A

Pressure: 30.15 "Hg

Humidity: 68%

Dew Point: 50 °F

Location of YokosukaLocation

Past Weather in Yokosuka — Graph

°F

Yokosuka Temperature Yesterday

Maximum temperature yesterday: 68 °F (at 12:30 pm)
Minimum temperature yesterday: 54 °F (at 2:00 am)
Average temperature yesterday: 61 °F

High & Low Weather Summary for the Past Weeks

 TemperatureHumidityPressure
High79 °F (Apr 19, 2:00 pm)100% (Apr 11, 10:30 am)30.36 "Hg (Apr 11, 10:30 am)
Low46 °F (Apr 11, 8:00 am)17% (Apr 19, 5:00 pm)29.18 "Hg (Apr 18, 12:13 pm)
Average60 °F65%29.83 "Hg
* Reported Apr 11 12:00 am — Apr 26 12:30 am, Yokosuka, Weather by CustomWeather, © 2017

Note: Actual official high and low records may vary slightly from our data, if they occured in-between our weather recording intervals... More about our weather records

Advertising

Yokosuka Weather History for the Previous 24 Hours

Scroll right to see more
 ConditionsComfort  
Time TempWeatherWind HumidityBarometerVisibility
12:30 am
Wed, Apr 26
61 °FPassing clouds.16 mph68%30.18 "HgN/A
12:00 am61 °FPassing clouds.20 mph68%30.18 "HgN/A
11:30 pm
Tue, Apr 25
61 °FPassing clouds.17 mph72%30.18 "HgN/A
11:00 pm61 °FPassing clouds.18 mph68%30.21 "HgN/A
10:30 pm61 °FPassing clouds.18 mph68%30.21 "HgN/A
10:00 pm61 °FPassing clouds.21 mph68%30.21 "HgN/A
9:30 pm61 °FPassing clouds.21 mph72%30.21 "HgN/A
8:37 pm61 °FPassing clouds.17 mph68%30.21 "HgN/A
8:30 pm61 °FPassing clouds.17 mph68%30.24 "HgN/A
8:00 pm61 °FPassing clouds.18 mph72%30.24 "HgN/A
7:39 pm61 °FPassing clouds.21 mph72%30.24 "HgN/A
7:00 pm61 °FPassing clouds.21 mph72%30.21 "HgN/A
6:30 pm61 °FPassing clouds.22 mph68%30.21 "HgN/A
6:00 pm61 °FPartly sunny.24 mph68%30.21 "HgN/A
5:30 pm63 °FPartly sunny.22 mph59%30.24 "HgN/A
5:00 pm63 °FPassing clouds.24 mph56%30.24 "HgN/A
4:00 pm66 °FPartly sunny.22 mph43%30.21 "HgN/A
3:30 pm66 °FScattered clouds.21 mph46%30.21 "HgN/A
2:30 pm68 °FScattered clouds.23 mph43%30.24 "HgN/A
2:11 pm68 °FScattered clouds.21 mph40%30.24 "HgN/A
2:00 pm68 °FScattered clouds.22 mph38%30.24 "HgN/A
1:30 pm68 °FScattered clouds.20 mph38%30.24 "HgN/A
1:19 pm68 °FScattered clouds.18 mph38%30.24 "HgN/A
1:00 pm68 °FScattered clouds.20 mph35%30.24 "HgN/A
12:30 pm68 °FPassing clouds.20 mph40%30.27 "HgN/A
12:00 pm66 °FScattered clouds.17 mph43%30.27 "HgN/A
11:30 am66 °FPartly sunny.16 mph43%30.30 "HgN/A
10:30 am66 °FPassing clouds.14 mph49%30.33 "HgN/A
10:00 am64 °FPassing clouds.15 mph49%30.33 "HgN/A
9:30 am64 °FPassing clouds.16 mph49%30.36 "HgN/A
9:00 am63 °FPartly sunny.16 mph52%30.33 "HgN/A
8:30 am63 °FPartly sunny.15 mph52%30.33 "HgN/A
7:30 am61 °FScattered clouds.13 mph59%30.33 "HgN/A
7:00 am59 °FPartly sunny.12 mph63%30.33 "HgN/A
6:30 am57 °FPartly sunny.7 mph77%30.33 "HgN/A
6:00 am57 °FPassing clouds.10 mph72%30.33 "HgN/A
5:30 am55 °FScattered clouds.12 mph72%30.33 "HgN/A
5:00 am55 °FScattered clouds.10 mph77%30.30 "HgN/A
4:30 am55 °FPassing clouds.9 mph77%30.30 "HgN/A
4:00 am54 °FPassing clouds.9 mph88%30.30 "HgN/A
3:30 am54 °FPassing clouds.8 mph82%30.33 "HgN/A
3:00 am54 °FPassing clouds.10 mph82%30.33 "HgN/A
2:30 am54 °FPassing clouds.9 mph82%30.33 "HgN/A
2:00 am54 °FPassing clouds.10 mph82%30.30 "HgN/A
1:30 am55 °FPassing clouds.9 mph77%30.33 "HgN/A
1:00 am55 °FPassing clouds.9 mph77%30.33 "HgN/A
Weather by CustomWeather, © 2017

See weather overviewHow to use our weather pages